Погода в Катайске

Россия / Курганская область     56°16′59″N   62°35′01″E
темп.,
°C
ветер,
м/с
пор.,
м/с
влажн.,
%
обл.,
%
осадки,
мм/ч
давл.,
гПа
погр.,
м
13 апреля, вт
вт1323:00+5с37874 0.0 1039134
02:00+4с34923 0.0 104061
05:00+3с22910 0.0 104111
08:00+5с11860 0.0 104273
11:00+9юз22680 0.0 1041474
14:00+12юз33575 0.0 1040907
17:00+13юз45580 0.0 1038953
20:00+10ююз36825 0.0 1037111
14 апреля, ср
ср1423:00+8ююз411875 0.0 1036220
02:00+8юз4108993 0.0 1034189
05:00+7юз4893100 0.0 1034155
08:00+8зюз4990100 0.0 1033276
11:00+13з56715 0.0 1032464
14:00+17з565974 0.0 1030893
17:00+18з465458 0.0 10291141
20:00+14з337269 0.0 102836
15 апреля, чт
чт1523:00+11зсз337851 0.0 102830
02:00+10з228349 0.0 102717
05:00+9з22867 0.0 102712
08:00+10зюз24825 0.0 1026116
11:00+15зюз45655 0.0 1024500
14:00+19зюз56505 0.0 10221172
17:00+19зюз58395 0.0 10201514
20:00+14зюз4955100 0.0 1019133
16 апреля, пт
пт1623:00+11з4969100 0.0 1018145
02:00+10з487990 0.0 1017135
05:00+8зюз48851 0.0 1016119
08:00+10сз48795 0.0 1016361
11:00+7ссв7984100 0.0 1018646
14:00+4ссв6992100 0.6 1021682
17:00+8ссв6755100 0.6 10211491
20:00+5ссв48595 0.0 1022164
17 апреля, сб
сб1723:00+3св48765 0.0 1023209
02:00+1св35795 0.0 1024109
05:000всв22770 0.0 102533
08:00+1всв00610 0.0 1025240
11:00+5зсз34495 0.0 10231277
14:00+7сз5745100 0.1 10221734
17:00+8ссз5736100 0.3 10202123
20:00+5сз1154100 0.0 102018